FENGYUN 1C DEB, 38812

Orbit data source: Space-Track

FENGYUN 1C DEB, 38812 is space debris in SSO originally from a launch on Mon, 10 May 1999 UTC launched from the Taiyaun Space Center, China (TSC). Fengyun 1C debris stems from the Chinese weather satellite Fengyun-1C, which was intentionally destroyed by a Chinese anti-satellite missile in 2007. This event dramatically increased the amount of space debris, with thousands of trackable fragments posing hazards to satellites and human spaceflight. The Fengyun 1C debris cloud has become a focal point in discussions about space sustainability and the need for international regulations to prevent the creation of new debris.

Loading next visibility...
Identifier
38812, 1999-025EVC
Orbit
SSO
Country
Flag of CNCN / PRC
Related business
Manufacturer
Unknown
Mission
Spacecraft
Bus & Motor
Unknown
Mass
Unknown
Launch date (UTC)
1999-05-10 (27 years ago)
Launch vehicle
Unknown
Launch site
Taiyaun Space Center, China (TSC)
Object type
Payload
Rocket body
Debris
Shape & HBR
Unknown shape, 0.1 m
Radar Cross Section
Small (<0.1 m²)

Expand to show TLE details & history
Last TLE update: 9 months ago

TLE from 9 months ago
0 FENGYUN 1C DEB
1 38812U 99025EVC 25151.35866706  .00001489  00000-0  14527-2 0  9995
2 38812  98.4373  18.6248 0260024 187.6586 172.0555 13.66654594724605
Epoch: 2025-05-31T08:36Z
TLE epoch observation values (Epoch: 2025-05-31T08:36:28.833Z)
Latitude
-0.0001°
Longitude
0.40448°
Altitude
1,204.892 km
Speed
7.158 km/s
True Right ascension
01h 14m 29s
True Declination
0° 00' 00"
Sunlit
Object was in daylight at epoch
Visualization orbit readout
Latitude
Unknown
Longitude
Unknown
Altitude
Unknown
Speed
Unknown
Apparent Right ascension
Unknown
Apparent Declination
Unknown
Sunlit
N/A
Visualization observer readout
Local Sidereal Time
15:54:26
Azimuth
Unknown
Elevation
Unknown
Doppler factor
Unknown
Orbital elements
Apogee altitude
1,200.9 km
Perigee altitude
816.742 km
Semi-major axis
7,386.958 km
Eccentricity
0.026
Inclination
98.4373°
RAAN
18.6248°
Arg. of periapsis
187.6586°
True anomaly
172.45447°
Mean anomaly
172.0555°
Eccentric anomaly
172.25624°
Mean motion
3.41857 °/min
Orbital period
105.31 mins
BSTAR
0.0014527

Documentation

Showing up to 5 results
|